Theta_e
308 307 307 307 306 306 305 305 303 301 300 299 299 298 297 296 296 296 296 296 296 296 296 295 295 293 293 293 292 291 290 290 290 290 290 290 291 292 292 292 292 291 291
305 305 304 303 302 301 299 299 299 299 298 297 296 296 296 295 295 295 295 295 295 294 294 293 293 292 291 292 291 291 290 290 289 289 289 289 289 290 289 290 291 290 290
304 303 301 299 299 298 298 298 298 297 296 296 295 295 295 295 295 294 294 294 293 292 291 291 291 291 291 291 290 290 290 289 289 288 288 288 288 288 289 289 289 289 289
302 301 299 298 298 298 297 297 296 296 295 294 294 294 294 294 293 293 292 292 291 291 291 290 290 290 289 289 289 289 288 288 288 287 287 287 287 288 288 288 288 288 288
301 299 298 297 297 296 296 295 295 294 294 293 293 293 293 292 292 291 290 289 289 290 289 288 288 288 288 288 288 287 287 287 287 287 286 286 286 286 286 285 285 285 286
300 299 298 297 296 295 294 294 295 294 293 292 292 291 291 290 290 289 289 288 288 288 288 287 287 287 287 287 286 286 286 286 285 285 284 284 283 282 282 282 282 282 282
300 298 297 296 294 294 295 294 293 292 291 291 290 289 289 288 288 287 287 287 286 286 286 285 285 285 286 285 284 284 284 284 283 282 282 281 280 279 279 280 280 280 279
300 298 296 294 293 293 293 291 290 290 289 289 289 288 287 286 286 286 286 285 285 285 285 284 284 284 284 284 284 283 282 282 281 280 280 279 278 278 277 277 277 277 279
299 297 295 294 294 293 292 290 289 288 287 288 286 287 285 285 285 284 284 284 283 283 283 283 282 283 283 283 282 281 281 280 280 279 279 278 277 276 276 277 278 277 278
300 298 295 293 293 292 290 289 287 287 287 287 285 285 283 282 283 283 283 283 282 282 282 281 281 281 281 281 280 279 279 279 279 279 278 277 276 276 276 275 275 274 273
298 296 294 292 291 289 288 287 287 287 285 284 284 284 282 281 282 282 282 282 281 281 280 280 279 279 279 278 278 278 278 277 276 276 276 276 276 276 275 274 273 272 272
296 295 293 291 289 287 286 285 284 286 285 283 283 282 281 279 279 280 280 280 280 280 279 278 278 278 277 277 277 276 276 275 275 275 275 275 275 274 273 272 271 271 271
294 292 290 288 287 285 284 285 287 285 282 281 282 281 280 279 279 278 278 278 279 278 278 277 277 276 276 276 276 275 275 275 275 274 274 274 273 272 271 271 271 271 271
292 291 288 286 285 285 286 286 285 282 282 281 280 279 278 277 277 276 277 277 277 277 277 276 276 275 275 275 274 274 274 274 273 273 273 272 271 271 270 270 270 270 271
288 288 287 286 286 285 284 284 283 281 279 279 279 278 277 276 276 275 276 275 276 276 275 275 274 274 274 273 273 273 272 272 271 271 271 271 270 269 269 268 268 268 268
287 285 285 284 282 281 281 279 277 276 277 277 276 275 275 275 275 274 273 273 274 275 274 274 274 273 273 273 272 272 271 271 270 270 270 269 269 268 268 267 267 266 266
283 283 282 280 279 279 277 277 278 275 274 274 275 274 274 274 273 272 271 274 274 273 273 273 272 272 272 271 271 271 271 270 269 269 269 268 268 267 266 266 266 266 265
281 281 280 280 279 278 278 276 276 276 275 274 274 274 273 273 272 271 273 273 273 273 272 272 271 271 271 270 270 270 269 269 268 268 268 267 266 265 266 265 265 264 264
279 279 278 278 277 277 276 275 274 274 273 273 273 273 273 272 271 272 273 272 272 271 271 270 270 270 270 269 269 269 268 268 267 267 267 266 265 265 265 264 264 264 264
278 277 277 277 276 274 273 273 273 273 273 273 272 272 272 272 272 272 272 271 271 270 270 270 269 269 269 268 268 268 267 267 267 266 266 265 265 264 264 264 264 263 264
275 275 275 274 272 273 273 273 275 274 273 272 272 271 271 271 271 270 270 270 270 269 269 269 269 268 268 267 267 267 266 266 266 266 265 265 264 264 264 263 263 263 264
275 275 274 273 274 275 275 275 273 272 272 271 271 271 271 271 270 270 269 269 269 268 268 268 268 268 267 266 266 266 266 266 265 265 264 264 264 264 263 263 263 263 264
275 275 275 275 275 274 272 271 271 271 271 271 270 270 270 269 269 269 269 268 268 268 268 268 267 267 266 266 265 265 265 265 265 264 264 263 263 263 263 263 263 263 264
274 274 274 272 271 271 271 271 270 270 270 270 270 269 269 268 268 268 268 268 268 268 267 267 266 266 266 266 265 265 264 264 264 264 263 263 263 263 263 263 263 263 264
271 271 271 271 270 270 270 270 270 269 269 269 269 268 268 268 268 268 268 267 267 267 267 266 266 266 266 265 265 264 264 264 264 263 263 263 263 263 263 263 263 263 264
271 271 270 270 270 270 269 269 268 268 268 268 268 268 268 268 268 267 267 267 267 266 266 266 266 266 265 265 265 264 264 264 264 263 263 263 263 263 263 263 264 264 264
Wind_Speed
16 16 15 15 14 13 13 13 12 12 12 12 11 11 11 11 11 10 10 9 9 7 6 4 5 6 5 4 3 6 10 13 15 17 21 24 26 30 31 34 37 39 41
18 18 18 17 16 16 15 15 15 15 14 14 13 13 12 11 11 11 11 10 9 9 9 8 8 6 4 4 6 8 12 17 21 23 25 29 30 30 33 35 36 37 38
20 21 21 20 19 18 18 17 16 16 15 15 14 13 12 12 12 12 13 13 12 11 8 6 4 3 3 6 9 11 13 16 20 23 27 28 31 34 36 36 37 37 36
24 25 24 23 22 21 21 19 18 17 16 16 15 14 13 13 13 14 13 11 9 7 5 3 1 2 5 8 11 13 15 17 19 22 25 29 32 34 36 41 43 41 43
28 28 27 26 25 24 23 22 20 18 18 17 15 14 14 14 15 14 13 11 9 8 6 3 0 3 6 9 11 13 15 18 20 21 24 27 30 34 36 39 42 46 45
32 31 30 30 28 26 24 22 21 20 18 17 17 17 16 17 17 16 15 13 10 7 5 4 2 3 5 8 11 13 16 17 19 20 22 26 27 29 32 36 40 45 50
35 34 34 32 30 28 26 24 22 21 20 19 18 17 17 17 18 16 14 12 10 8 6 4 4 5 6 6 9 12 14 16 17 18 20 22 25 28 32 34 34 37 40
38 37 36 35 32 30 28 25 23 22 20 19 19 19 18 17 18 16 14 11 9 7 6 5 5 6 8 8 9 11 11 13 14 18 20 21 23 24 26 29 32 36 38
43 40 38 37 35 32 30 27 26 24 22 22 21 20 19 16 16 14 11 9 9 8 7 6 7 7 10 10 10 11 12 13 14 16 18 19 20 21 24 28 31 36 42
47 43 39 36 35 34 31 29 27 24 22 22 21 21 19 17 15 14 12 9 9 9 9 8 8 9 10 12 12 13 14 15 16 16 17 18 19 21 23 24 26 29 31
44 40 38 37 36 34 32 31 28 28 26 24 23 22 21 19 15 14 13 10 10 9 9 9 8 8 9 11 12 14 16 17 18 19 19 20 20 20 21 21 21 23 25
40 39 38 36 35 33 32 30 28 26 26 26 25 23 22 21 18 14 13 11 10 9 9 8 8 8 9 11 13 15 16 18 19 19 20 21 22 22 22 23 22 22 22
36 36 35 34 33 32 32 30 30 28 28 27 25 24 23 21 17 14 12 10 9 9 8 9 9 9 9 11 14 15 16 17 19 20 21 22 23 23 23 24 24 24 25
35 34 33 33 33 32 31 30 29 28 29 28 26 25 22 19 17 14 12 10 9 9 8 9 9 10 11 12 14 16 17 18 19 20 21 22 23 23 23 25 28 29 32
34 34 33 34 33 32 31 29 27 25 26 25 22 20 20 18 16 14 12 11 10 7 8 9 10 12 13 14 15 16 16 17 18 19 20 22 23 25 25 25 26 28 29
34 33 32 33 32 30 28 25 23 21 21 22 21 19 18 16 16 13 11 12 11 8 9 11 12 13 15 16 17 16 17 18 19 20 21 22 24 25 27 26 26 28 30
30 31 29 29 30 28 25 24 23 21 18 19 20 19 17 16 14 12 13 13 12 12 12 12 13 14 15 17 18 18 19 19 20 21 22 22 24 25 26 27 27 29 29
23 23 23 24 24 23 22 21 23 21 21 19 19 16 15 14 13 15 16 12 14 13 13 14 15 16 17 17 18 19 19 19 20 21 22 22 23 25 26 26 27 29 29
22 23 24 23 23 20 19 22 22 20 18 17 15 16 16 15 16 19 15 14 15 15 15 15 16 16 17 18 19 19 20 20 21 22 22 23 22 24 25 26 27 27 27
19 20 21 21 20 20 21 20 19 18 17 18 18 18 17 17 17 17 17 16 16 16 16 15 17 17 18 19 20 20 20 20 20 22 23 23 23 24 26 27 26 28 27
18 18 15 14 18 17 17 18 18 16 18 19 18 18 18 18 17 17 17 18 17 17 17 17 16 18 19 20 20 20 21 22 21 22 23 23 23 23 23 25 26 26 26
15 14 15 17 17 17 16 14 16 19 19 18 18 18 19 18 17 17 17 17 17 17 19 19 18 18 19 20 21 22 22 22 20 21 23 23 22 22 24 26 26 25 24
12 13 14 16 15 14 16 18 17 17 17 18 18 18 18 18 18 17 17 17 18 19 20 21 21 19 20 21 23 24 24 23 22 23 23 23 23 23 25 27 27 26 24
13 14 14 14 15 16 16 16 17 17 17 17 18 18 18 18 18 18 18 19 20 19 20 21 22 22 22 22 23 23 24 24 24 24 25 26 26 26 27 28 29 26 25
13 13 14 14 15 15 16 17 17 17 17 17 17 18 18 19 19 19 20 21 20 20 20 21 22 23 23 24 24 23 24 24 25 24 25 27 29 29 28 28 27 25 26
14 14 14 15 16 16 16 17 17 17 17 17 18 19 20 20 20 20 20 20 21 22 22 21 22 23 24 24 24 25 25 24 24 23 25 28 29 29 27 27 26 28 30
Wind_Direction
251 250 247 243 236 229 225 223 221 221 220 222 225 227 227 224 220 218 216 210 203 192 182 158 145 126 122 108 53 9 355 350 353 348 348 345 344 339 338 338 339 338 337
242 241 237 233 228 224 221 220 222 226 228 227 225 225 224 221 217 212 203 191 185 177 167 158 151 136 102 50 24 6 354 349 348 346 345 342 341 338 337 334 334 332 332
244 241 236 230 227 226 228 230 231 232 233 234 231 225 220 216 213 203 195 185 176 166 155 138 107 80 29 14 7 359 353 348 345 342 337 338 334 333 331 330 331 328 331
242 239 235 231 230 231 232 233 233 234 235 232 228 223 221 216 207 197 188 181 176 169 162 162 128 32 11 2 356 350 346 340 338 336 333 332 330 330 329 329 328 330 332
241 238 236 234 234 233 232 232 231 232 233 231 228 226 221 212 202 193 184 181 185 188 184 185 31 2 358 351 345 339 338 334 332 330 326 326 326 328 332 333 331 330 330
241 239 237 236 234 232 230 230 233 233 232 230 227 223 214 209 203 197 192 192 195 198 205 213 261 322 342 338 331 328 327 328 326 327 327 326 328 328 330 332 332 332 332
239 237 236 235 233 232 232 233 230 229 228 225 219 215 211 205 195 194 196 197 199 205 218 241 277 305 319 323 324 323 322 320 319 322 324 327 330 333 328 324 326 326 324
237 235 234 232 231 230 230 228 226 225 222 219 216 215 213 208 199 200 203 203 207 213 225 245 267 294 305 310 315 310 310 313 321 328 329 328 324 323 323 323 324 319 318
235 234 233 232 231 230 228 226 223 218 216 219 214 216 217 217 206 204 207 211 220 227 236 248 272 291 294 302 308 312 319 321 321 319 320 319 317 318 319 319 320 325 326
236 235 234 232 231 229 226 222 219 216 221 221 217 218 219 220 213 210 213 218 227 234 243 253 265 279 295 310 319 318 317 318 314 313 315 316 317 318 319 322 324 328 333
233 231 231 231 229 227 223 219 217 217 213 213 215 215 217 221 220 220 216 220 231 237 244 253 267 288 302 310 316 313 313 318 319 320 318 314 312 315 318 322 326 327 327
229 228 229 229 227 223 221 218 211 215 214 217 213 210 209 213 217 220 223 224 225 237 248 258 274 290 300 305 310 313 316 317 316 313 314 315 320 325 326 327 330 329 326
226 228 228 225 224 221 217 217 220 216 213 213 214 212 213 213 220 227 237 235 239 243 254 262 271 283 292 303 308 308 307 307 309 312 316 321 324 326 326 324 326 326 325
226 222 224 225 221 219 221 219 216 211 212 215 213 212 212 213 216 222 234 246 243 248 257 269 281 291 300 304 303 303 306 310 313 317 319 320 321 323 327 328 328 330 327
228 224 219 222 222 219 215 214 209 213 218 216 214 215 217 216 218 226 239 255 259 266 271 282 291 298 300 300 301 304 307 309 312 316 317 319 321 324 329 332 331 331 331
230 226 221 216 212 209 206 197 197 204 210 212 209 213 214 214 224 222 220 237 272 287 281 286 294 297 298 300 302 306 311 312 314 316 318 318 320 324 328 332 331 331 331
229 224 217 212 205 199 194 197 196 192 201 207 209 211 214 223 226 222 229 261 275 281 285 290 291 294 297 301 305 309 312 313 314 315 316 317 318 321 327 330 330 329 329
232 230 223 217 210 200 195 198 205 206 201 206 214 217 224 229 231 234 253 271 274 280 284 288 292 294 296 300 303 306 309 311 312 312 313 314 316 319 324 325 326 328 328
218 211 209 204 201 195 195 204 208 205 207 218 223 226 233 235 237 250 262 265 272 277 281 284 287 291 295 299 301 304 308 311 311 309 309 310 314 316 319 320 320 323 323
208 208 202 200 198 197 201 201 204 206 213 221 227 231 234 238 244 255 262 266 270 272 276 280 286 290 292 294 298 302 305 306 307 305 305 306 310 313 315 317 317 319 322
204 199 194 196 203 204 202 206 211 214 220 224 227 232 237 241 248 255 260 264 267 271 276 281 285 288 290 293 297 300 303 304 304 302 301 304 309 313 315 316 314 315 320
200 200 204 208 211 218 217 216 220 222 224 229 234 238 242 248 249 252 257 264 270 277 281 284 286 288 290 292 294 297 298 300 300 296 298 303 307 311 315 316 315 312 314
209 213 221 223 222 224 226 226 227 231 232 236 240 244 249 254 256 258 262 266 272 277 280 284 287 289 290 292 295 298 299 302 300 296 297 298 301 305 307 311 313 310 309
220 221 225 229 232 234 235 236 237 238 240 242 244 246 249 253 258 263 266 269 272 274 277 281 286 289 289 289 292 294 297 299 297 294 293 296 301 302 302 306 311 309 304
229 232 235 239 243 244 245 245 246 245 246 247 249 252 255 258 261 266 269 271 274 278 280 282 284 286 289 291 293 295 296 296 294 291 291 294 297 299 298 302 309 306 303
236 239 240 242 245 249 251 251 252 253 255 256 257 258 258 261 264 266 269 274 277 279 282 283 285 287 289 290 292 292 293 293 291 287 286 289 292 300 300 300 304 307 309